Location: Bh?mavarapp?du
(16.7041°N, 80.6518°E)
Time: 07:05:06
(UTC+00:00)

Aurora 2 Rocket - Pass Details

Date: 21 April 2021
Orbit: 390 x 1738 km, 25.0° (Epoch: 05 May)

Event Time Altitude Azimuth Distance (km) Brightness Sun altitude
Rises 13:54:22 0° 295° (WNW) 2,256 7.3 -14.7°
Reaches altitude 10° 13:56:24 10° 302° (WNW) 1,418 5.7 -15.2°
Maximum altitude 13:59:24 45° 17° (NNE) 581 2.4 -15.8°
Enters shadow 14:00:37 30° 70° (ENE) 804 2.7 -16.1°
